星链-31070 (STARLINK-31070 )

导读

STARLINK-31070是美国SpaceX星链计划的卫星,于2023年12月23日发射,星链系统旨在构建全球卫星互联网星座,为全球提供高速宽带互联服务。该卫星加入星座后,进一步扩充了星链低轨卫星网络的覆盖规模,提升了系统服务容量,推动全球无缝互联网络建设。

基本信息
目录编号:
58639
目录名称:
STARLINK-31070
国际标识:
2023-203X
轨道中心:
EARTH
卫星名称:
星链-31070
卫星全名:
星链-31070 (STARLINK-31070 )
卫星状态:
在轨 (已飞行908 天)
发射日期:
2023-12-23 UTC
国别 :
美国 (US)
星等 :
--
轨道信息
数据来源 国际轨道数据 AOE轨道数据
星历时间 2026-06-17T04:37:14+0800
1天前
查看轨道信息
2026-06-17T07:00:00+0800
1天前
查看轨道信息
半长轴 6861.204km 6861.19km
偏心率 0.0001347 0.0000803
轨道倾角 43.000° 42.996°
近地点辐角 278.630° 240.802°
升交点赤经 227.418° 226.857°
平近点角 81.439° 305.084°
近地点 482.142km 482.502km
远地点 483.992km 483.604km
周期 94.267分钟 94.267分钟
每日圈数 15.275741 15.27579
详细信息
固有亮度:
5
最大亮度:
0.3
卫星平台:
Starlink v2.0 mini
覆盖范围:
全球
运营商:
太空探索技术公司
运营商所在国:
美国
制造商(研发单位):
太空探索技术公司
制造商所在国:
美国
使用方式:
暂无
卫星简介
星链(Starlink)计划是由太空探索技术公司(SpaceX)提出的一个巨型低轨卫星互联网星座项目,计划在2019年至2024年间在太空搭建由约1.2万颗卫星组成的“星链”网络,其中1584颗将部署在地球上空550千米处的近地轨道,并从2020年开始工作。该卫星仍在工作。
2D轨道图
3D轨道图
轨道高度分析图
轨道倾角分析图
轨道综合分析图
查看轨道综合分析图